Date String (YYYY-MM-DD hh:mm:ss) UTC,Instrument flags,Ambient pressure (hPa),Sample flow (lpm),Bypass flow (lpm),Sample temperature (°C),Ambient temperature (°C),ASC tube jacket temperature (°C),LED temperature (°C),Box temperature (°C),Sample RH (%),Span deviation,Mass concentration (μg/m³),Mass concentration (μg/m³),Mass concentration (μg/m³)
DateTimeUTC,F1_M11,P_M11,Q1_M11,Q2_M11,T1_M11,T2_M11,T3_M11,T4_M11,T5_M11,U1_M11,ZSPAN_M11,X0_M11,X2_M11,X1_M11
2023-01-29 05:00:00,,0824.8,4.99,0.00,22.3,20.9,00.0,31.2,23.9,07.8,0000.0,0004.57,0003.70,0003.62
2023-01-29 05:01:00,,0824.8,5.01,0.00,22.2,20.7,00.0,31.1,23.8,07.8,0000.0,0004.64,0003.72,0003.64
2023-01-29 05:02:00,,0824.9,5.00,0.00,22.2,20.4,00.0,31.1,23.7,07.8,0000.0,0004.68,0003.74,0003.66
2023-01-29 05:03:00,,0824.9,5.01,0.00,22.1,20.9,00.0,31.1,23.8,07.8,0000.0,0004.70,0003.76,0003.67
2023-01-29 05:04:00,,0824.9,5.00,0.00,22.2,21.8,00.0,31.1,24.1,07.7,0000.0,0004.64,0003.76,0003.68
2023-01-29 05:05:00,,0824.9,5.00,0.00,22.4,22.6,00.0,31.1,24.3,07.6,0000.0,0004.73,0003.79,0003.70
2023-01-29 05:06:00,,0824.9,4.99,0.00,22.4,22.3,00.0,31.1,24.3,07.6,0000.0,0004.81,0003.82,0003.72
2023-01-29 05:07:00,,0824.9,5.01,0.00,22.4,21.7,00.0,31.2,24.1,07.6,0000.0,0004.84,0003.84,0003.73
2023-01-29 05:08:00,,0824.9,4.99,0.00,22.3,21.2,00.0,31.2,24.0,07.6,0000.0,0004.90,0003.85,0003.73
2023-01-29 05:09:00,,0824.9,4.99,0.00,22.3,20.8,00.0,31.2,23.8,07.6,0000.0,0004.87,0003.85,0003.73
2023-01-29 05:10:00,,0824.9,5.02,0.00,22.2,20.5,00.0,31.2,23.7,07.6,0000.0,0004.84,0003.84,0003.73
2023-01-29 05:11:00,,0824.9,5.01,0.00,22.1,20.4,00.0,31.1,23.6,07.6,0000.0,0004.74,0003.84,0003.73
2023-01-29 05:12:00,,0824.9,4.97,0.00,22.2,21.3,00.0,31.1,23.9,07.6,0000.0,0004.71,0003.83,0003.73
2023-01-29 05:13:00,,0824.9,5.01,0.00,22.3,22.2,00.0,31.1,24.2,07.5,0000.0,0004.71,0003.83,0003.72
2023-01-29 05:14:00,,0824.9,5.00,0.00,22.4,22.9,00.0,31.1,24.4,07.4,0000.0,0004.68,0003.82,0003.71
2023-01-29 05:15:00,,0824.9,4.99,0.00,22.5,22.5,00.0,31.2,24.4,07.4,0000.0,0004.72,0003.83,0003.71
2023-01-29 05:16:00,,0824.9,5.01,0.00,22.4,21.9,00.0,31.2,24.2,07.4,0000.0,0004.67,0003.81,0003.70
2023-01-29 05:17:00,,0824.8,4.99,0.00,22.4,21.3,00.0,31.2,24.0,07.4,0000.0,0004.61,0003.80,0003.70
2023-01-29 05:18:00,,0824.8,5.00,0.00,22.3,20.9,00.0,31.2,23.9,07.4,0000.0,0004.62,0003.81,0003.71
2023-01-29 05:19:00,,0824.7,4.99,0.00,22.2,20.6,00.0,31.2,23.8,07.4,0000.0,0004.64,0003.82,0003.71
2023-01-29 05:20:00,,0824.7,5.01,0.00,22.1,20.3,00.0,31.2,23.6,07.4,0000.0,0004.67,0003.82,0003.70
2023-01-29 05:21:00,,0824.8,5.00,0.00,22.1,20.6,00.0,31.1,23.7,07.4,0000.0,0004.64,0003.80,0003.69
2023-01-29 05:22:00,,0824.9,4.99,0.00,22.2,21.6,00.0,31.1,24.0,07.4,0000.0,0004.63,0003.79,0003.67
2023-01-29 05:23:00,,0824.8,4.99,0.00,22.3,22.5,00.0,31.1,24.3,07.3,0000.0,0004.59,0003.78,0003.65
2023-01-29 05:24:00,,0824.8,5.01,0.00,22.4,22.3,00.0,31.1,24.3,07.3,0000.0,0004.55,0003.77,0003.65
2023-01-29 05:25:00,,0824.8,5.01,0.00,22.4,21.7,00.0,31.2,24.1,07.3,0000.0,0004.62,0003.77,0003.65
2023-01-29 05:26:00,,0824.8,4.99,0.00,22.3,21.3,00.0,31.2,23.9,07.3,0000.0,0004.68,0003.78,0003.65
2023-01-29 05:27:00,,0824.8,4.99,0.00,22.2,20.9,00.0,31.2,23.8,07.3,0000.0,0004.73,0003.78,0003.64
2023-01-29 05:28:00,,0824.8,4.99,0.00,22.2,20.5,00.0,31.2,23.8,07.3,0000.0,0004.82,0003.80,0003.64
2023-01-29 05:29:00,,0824.8,5.00,0.00,22.1,20.3,00.0,31.1,23.7,07.4,0000.0,0004.90,0003.81,0003.64
2023-01-29 05:30:00,,0824.8,4.99,0.00,22.1,20.5,00.0,31.1,23.7,07.4,0000.0,0004.93,0003.81,0003.63
2023-01-29 05:31:00,,0824.7,4.99,0.00,22.2,21.6,00.0,31.1,24.0,07.3,0000.0,0004.90,0003.81,0003.64
2023-01-29 05:32:00,,0824.7,4.99,0.00,22.3,22.4,00.0,31.1,24.2,07.3,0000.0,0004.93,0003.82,0003.64
2023-01-29 05:33:00,,0824.7,5.00,0.00,22.4,22.9,00.0,31.1,24.4,07.2,0000.0,0004.99,0003.83,0003.65
2023-01-29 05:34:00,,0824.8,5.00,0.00,22.4,22.3,00.0,31.1,24.3,07.2,0000.0,0005.04,0003.85,0003.67
2023-01-29 05:35:00,,0824.9,4.99,0.00,22.4,21.7,00.0,31.2,24.1,07.2,0000.0,0005.07,0003.87,0003.69
2023-01-29 05:36:00,,0824.8,5.00,0.00,22.3,21.2,00.0,31.2,23.9,07.3,0000.0,0005.05,0003.88,0003.70
2023-01-29 05:37:00,,0824.7,5.01,0.00,22.2,20.8,00.0,31.2,23.8,07.3,0000.0,0005.00,0003.88,0003.71
2023-01-29 05:38:00,,0824.6,4.99,0.00,22.2,20.6,00.0,31.1,23.7,07.3,0000.0,0004.93,0003.88,0003.71
2023-01-29 05:39:00,,0824.7,5.00,0.00,22.1,20.3,00.0,31.1,23.6,07.3,0000.0,0004.86,0003.86,0003.71
2023-01-29 05:40:00,,0824.7,5.00,0.00,22.1,20.5,00.0,31.1,23.7,07.3,0000.0,0004.78,0003.84,0003.71
2023-01-29 05:41:00,,0824.8,5.00,0.00,22.2,21.5,00.0,31.1,24.0,07.3,0000.0,0004.71,0003.82,0003.70
2023-01-29 05:42:00,,0824.6,4.99,0.00,22.3,22.4,00.0,31.1,24.2,07.3,0000.0,0004.76,0003.83,0003.70
2023-01-29 05:43:00,,0824.7,5.01,0.00,22.4,22.5,00.0,31.1,24.3,07.2,0000.0,0004.75,0003.82,0003.69
2023-01-29 05:44:00,,0824.6,4.99,0.00,22.4,21.9,00.0,31.1,24.2,07.2,0000.0,0004.73,0003.82,0003.68
2023-01-29 05:45:00,,0824.6,5.00,0.00,22.3,21.4,00.0,31.2,24.0,07.2,0000.0,0004.69,0003.81,0003.68
2023-01-29 05:46:00,,0824.6,4.99,0.00,22.2,21.0,00.0,31.2,23.9,07.2,0000.0,0004.74,0003.82,0003.66
2023-01-29 05:47:00,,0824.6,4.98,0.00,22.2,20.7,00.0,31.1,23.8,07.3,0000.0,0004.82,0003.83,0003.65
2023-01-29 05:48:00,,0824.7,4.99,0.00,22.1,20.4,00.0,31.1,23.6,07.3,0000.0,0004.87,0003.84,0003.64
2023-01-29 05:49:00,,0824.7,5.00,0.00,22.1,20.3,00.0,31.1,23.6,07.3,0000.0,0004.92,0003.84,0003.64
2023-01-29 05:50:00,,0824.7,5.00,0.00,22.1,20.8,00.0,31.1,23.7,07.3,0000.0,0004.93,0003.84,0003.63
2023-01-29 05:51:00,,0824.6,5.01,0.00,22.2,21.9,00.0,31.0,24.0,07.3,0000.0,0004.94,0003.84,0003.63
2023-01-29 05:52:00,,0824.6,5.00,0.00,22.3,22.7,00.0,31.1,24.3,07.2,0000.0,0004.93,0003.83,0003.62
2023-01-29 05:53:00,,0824.7,4.98,0.00,22.4,22.3,00.0,31.1,24.2,07.2,0000.0,0004.91,0003.83,0003.62
2023-01-29 05:54:00,,0824.7,5.03,0.00,22.3,21.7,00.0,31.1,24.1,07.2,0000.0,0005.07,0003.84,0003.63
2023-01-29 05:55:00,,0824.5,5.02,0.00,22.3,21.2,00.0,31.1,23.9,07.2,0000.0,0005.06,0003.84,0003.64
2023-01-29 05:56:00,,0824.5,5.01,0.00,22.2,20.8,00.0,31.1,23.8,07.3,0000.0,0005.02,0003.84,0003.65
2023-01-29 05:57:00,,0824.4,5.00,0.00,22.1,20.5,00.0,31.1,23.7,07.3,0000.0,0004.98,0003.83,0003.66
2023-01-29 05:58:00,,0824.4,4.99,0.00,22.1,20.3,00.0,31.1,23.6,07.3,0000.0,0004.94,0003.82,0003.65
2023-01-29 05:59:00,,0824.5,5.02,0.00,22.1,20.8,00.0,31.1,23.7,07.2,0000.0,0004.81,0003.80,0003.65
